Location: Ulm
(48.3980°N, 9.9777°E)
Time: 22:31:51
(UTC+01:00)

ISS - Visible Passes

Search period start: 25 February 2018 00:00
Search period end: 07 March 2018 00:00
Orbit: 403 x 406 km, 51.6° (Epoch: 26 February)

Date Brightness Start Highest point End Pass type
(mag) Time Alt. Az. Time Alt. Az. Time Alt. Az.
26 Feb -1.0 06:24:37 10° S 06:26:49 17° SE 06:29:01 10° E visible
28 Feb -2.2 06:15:35 10° SSW 06:18:33 32° SE 06:21:32 10° E visible
01 Mar -1.5 05:24:08 11° S 05:26:27 20° SE 05:28:57 10° E visible
02 Mar -0.9 04:34:18 12° SE 04:34:25 12° SE 04:35:48 10° ESE visible
02 Mar -3.4 06:07:07 10° SW 06:10:21 62° SSE 06:13:36 10° ENE visible
03 Mar -2.7 05:17:00 28° SSW 05:18:08 38° SSE 05:21:14 10° ENE visible
04 Mar -1.5 04:26:55 21° ESE 04:26:55 21° ESE 04:28:41 10° E visible
04 Mar -3.8 05:59:34 15° WSW 06:02:13 79° NNW 06:05:30 10° ENE visible
05 Mar -3.8 05:09:24 57° SW 05:09:54 72° SSE 05:13:11 10° ENE visible
06 Mar -1.6 04:19:09 25° E 04:19:09 25° E 04:20:48 10° ENE visible
06 Mar -3.5 05:51:48 17° W 05:54:07 55° NNW 05:57:21 10° ENE visible
